Capitol Logistics 3274




MYNN
Lynden Pindling International Airport
Nassau, BS
MYGF
Grand Bahama International Airport
Freeport, BS

Activity Log

Date Flight Route Aircraft Duration
03/14/2021 CPX3274 PEACH BR65V ZFP SF34 0h 57m
09/14/2019 CPX674 PEACH BR65V ZFP SF34 0h 46m
09/04/2019 CPX674 PEACH BR65V ZFP SF34 0h 43m
06/25/2019 CPX674 PEACH BR65V ZFP SF34 0h 43m

Route Details

Aircraft Information
Primary: Saab 340AF
Backup: Not Available
Route Data
Distance: 113nm
Duration: 2h 00m
Recm'd Route: PEACH BR65V ZFP
Origin Wx: MYNN 020400Z 17008KT 9999 FEW018CB SCT022 28/24 A3011 RMK CB NE
Dest. Wx: MYGF 020400Z AUTO 18005KT //// R24/P2000N // FEW022 29/25 A3009
Notes: